Find Local Weather

World > North America > United States > Wisconsin

Kimberly, Wisconsin Regional Weather

Lat: 44.28N, Lon: 88.31W
Wx Zone: WIZ038
Feedback
Expires:201804241500;;429472
ASUS43 KMKX 241420
RWRWI 

WISCONSIN REGIONAL WEATHER ROUNDUP
NATIONAL WEATHER SERVICE MILWAUKEE/SULLIVAN WI
900 AM CDT TUE APR 24 2018

NOTE: "FAIR" INDICATES FEW OR NO CLOUDS BELOW 12,000 FEET WITH NO
SIGNIFICANT WEATHER AND/OR OBSTRUCTIONS TO VISIBILITY.


WIZ011>013-019>022-031-037>040-048>050-241500-
NORTHEAST WISCONSIN
  
CITY           SKY/WX    TMP DP  RH WIND       PRES   REMARKS
ANTIGO         FAIR      49  35  58 CALM      30.10F                  
SHAWANO        FAIR      53  32  44 CALM      30.09F                  
OCONTO         FAIR      47  32  56 CALM      30.10F                  
STURGEON BAY   FAIR      51  28  41 CALM      30.11                   
GREEN BAY      FAIR      50  33  52 CALM      30.10F                  
MANITOWOC      FAIR      52  34  50 N8        30.10S HAZE             
APPLETON       MOSUNNY   52  28  40 N3        30.09S                  
CLINTONVILLE   FAIR      49  31  48 CALM      30.10S                  
OSHKOSH        FAIR      54  35  48 N7        30.10S                  
$$
 

SKY/WX - Weather  TMP - Temperature  DP - Dewpoint  RH - Relative Humidity
WIND - Wind Direction/Speed PRES - Barometric Pressure